| time (UTC) | temp F | wind direction | speed MPH | gust MPH | rain 1hr in | rain 24hr in | rain mn in | humidity % | barometer mb |
| 20260509021348 | 44 | 290 | 0.0 | 6.0 | 0.00 | 0.00 | 0.00 | 86 | 1008.5 |
| 20260509020349 | 45 | 227 | 3.0 | 6.0 | 0.00 | 0.00 | 0.00 | 85 | 1008.4 |
| 20260509015850 | 45 | 235 | 4.0 | 6.0 | 0.00 | 0.00 | 0.00 | 84 | 1008.5 |
| 20260509015346 | 45 | 226 | 4.0 | 4.0 | 0.00 | 0.00 | 0.00 | 83 | 1008.3 |
| 20260509014341 | 46 | 224 | 3.0 | 8.0 | 0.00 | 0.00 | 0.00 | 81 | 1008.3 |
| 20260509013838 | 46 | 269 | 4.0 | 8.0 | 0.00 | 0.00 | 0.00 | 81 | 1008.1 |
| 20260509013334 | 46 | 274 | 4.0 | 6.0 | 0.00 | 0.00 | 0.00 | 80 | 1008.2 |
| 20260509012835 | 46 | 260 | 5.0 | 6.0 | 0.00 | 0.00 | 0.00 | 79 | 1008.1 |
| 20260509012333 | 46 | 302 | 4.0 | 6.0 | 0.00 | 0.00 | 0.00 | 79 | 1007.9 |
| 20260509011834 | 46 | 284 | 4.0 | 6.0 | 0.00 | 0.00 | 0.00 | 79 | 1008.0 |
| 20260509010829 | 46 | 215 | 5.0 | 7.0 | 0.00 | 0.00 | 0.00 | 78 | 1007.7 |
| 20260509010328 | 46 | 288 | 4.0 | 7.0 | 0.00 | 0.00 | 0.00 | 78 | 1007.6 |
| 20260509005827 | 46 | 300 | 4.0 | 10.0 | 0.00 | 0.00 | 0.00 | 79 | 1007.7 |
| 20260509005327 | 46 | 289 | 5.0 | 10.0 | 0.00 | 0.00 | 0.00 | 78 | 1007.5 |
| 20260509004824 | 46 | 256 | 5.0 | 11.0 | 0.00 | 0.00 | 0.00 | 77 | 1007.5 |
| 20260509004324 | 46 | 226 | 5.0 | 11.0 | 0.00 | 0.00 | 0.00 | 76 | 1007.5 |
| 20260509003824 | 46 | 237 | 6.0 | 9.0 | 0.00 | 0.00 | 0.00 | 77 | 1007.4 |
| 20260509003323 | 46 | 229 | 5.0 | 11.0 | 0.00 | 0.00 | 0.00 | 78 | 1007.3 |
| 20260509002322 | 46 | 248 | 5.0 | 8.0 | 0.00 | 0.00 | 0.00 | 76 | 1007.2 |
| 20260509001327 | 46 | 234 | 6.0 | 10.0 | 0.00 | 0.00 | 0.00 | 77 | 1007.1 |
| 20260509000822 | 46 | 240 | 4.0 | 9.0 | 0.00 | 0.00 | 0.00 | 77 | 1006.9 |
| 20260509000319 | 46 | 260 | 3.0 | 5.0 | 0.00 | 0.00 | 0.00 | 77 | 1006.8 |
| 20260508235816 | 46 | 242 | 3.0 | 5.0 | 0.00 | 0.00 | 0.00 | 77 | 1006.6 |
| 20260508235315 | 46 | 198 | 2.0 | 4.0 | 0.00 | 0.00 | 0.00 | 78 | 1006.7 |
| 20260508234816 | 46 | 182 | 2.0 | 5.0 | 0.00 | 0.00 | 0.00 | 76 | 1006.6 |
| 20260508234313 | 46 | 189 | 2.0 | 5.0 | 0.00 | 0.00 | 0.00 | 76 | 1006.4 |
| 20260508233811 | 47 | 178 | 2.0 | 5.0 | 0.00 | 0.00 | 0.00 | 75 | 1006.5 |
| 20260508233306 | 47 | 234 | 3.0 | 6.0 | 0.00 | 0.00 | 0.00 | 74 | 1006.5 |
| 20260508232806 | 47 | 263 | 5.0 | 7.0 | 0.00 | 0.00 | 0.00 | 74 | 1006.3 |
| 20260508232306 | 47 | 285 | 5.0 | 11.0 | 0.00 | 0.00 | 0.00 | 74 | 1006.4 |
| 20260508231801 | 47 | 300 | 7.0 | 18.0 | 0.00 | 0.00 | 0.00 | 73 | 1006.3 |
| 20260508231300 | 47 | 305 | 7.0 | 24.0 | 0.00 | 0.00 | 0.00 | 72 | 1006.2 |
| 20260508230757 | 48 | 290 | 6.0 | 24.0 | 0.00 | 0.00 | 0.00 | 70 | 1006.3 |
| 20260508230256 | 49 | 299 | 23.0 | 24.0 | 0.00 | 0.00 | 0.00 | 66 | 1006.0 |
| 20260508225752 | 49 | 267 | 10.0 | 13.0 | 0.00 | 0.00 | 0.00 | 63 | 1006.0 |
| 20260508225248 | 50 | 276 | 4.0 | 9.0 | 0.00 | 0.00 | 0.00 | 63 | 1005.9 |
| 20260508224745 | 50 | 272 | 6.0 | 9.0 | 0.00 | 0.00 | 0.00 | 63 | 1005.7 |
| 20260508224244 | 50 | 278 | 6.0 | 13.0 | 0.00 | 0.00 | 0.00 | 63 | 1005.4 |
| 20260508223739 | 50 | 275 | 6.0 | 13.0 | 0.00 | 0.00 | 0.00 | 63 | 1005.2 |
| 20260508223236 | 50 | 273 | 4.0 | 14.0 | 0.00 | 0.00 | 0.00 | 63 | 1005.4 |
| 20260508222735 | 50 | 254 | 5.0 | 14.0 | 0.00 | 0.00 | 0.00 | 62 | 1005.3 |
| 20260508222233 | 51 | 267 | 5.0 | 9.0 | 0.00 | 0.00 | 0.00 | 62 | 1005.2 |
| 20260508220730 | 51 | 248 | 6.0 | 12.0 | 0.00 | 0.00 | 0.00 | 64 | 1004.9 |
| 20260508220228 | 51 | 235 | 9.0 | 15.0 | 0.00 | 0.00 | 0.00 | 62 | 1004.8 |
| 20260508215731 | 50 | 252 | 8.0 | 15.0 | 0.00 | 0.00 | 0.00 | 63 | 1004.7 |
| 20260508215230 | 50 | 241 | 7.0 | 14.0 | 0.00 | 0.00 | 0.00 | 64 | 1004.9 |
| 20260508214729 | 50 | 261 | 12.0 | 18.0 | 0.00 | 0.00 | 0.00 | 63 | 1004.8 |
| 20260508214228 | 51 | 237 | 9.0 | 18.0 | 0.00 | 0.00 | 0.00 | 63 | 1004.7 |
| 20260508213726 | 51 | 276 | 6.0 | 17.0 | 0.00 | 0.00 | 0.00 | 62 | 1004.7 |
| 20260508213225 | 53 | 271 | 10.0 | 14.0 | 0.00 | 0.00 | 0.00 | 58 | 1004.7 |
| 20260508212726 | 53 | 259 | 8.0 | 12.0 | 0.00 | 0.00 | 0.00 | 59 | 1004.5 |
| 20260508212226 | 53 | 257 | 7.0 | 16.0 | 0.00 | 0.00 | 0.00 | 60 | 1004.3 |
| 20260508211724 | 53 | 287 | 5.0 | 16.0 | 0.00 | 0.00 | 0.00 | 59 | 1004.5 |
| 20260508211223 | 55 | 281 | 8.0 | 16.0 | 0.00 | 0.00 | 0.00 | 57 | 1004.3 |
| 20260508210721 | 55 | 302 | 7.0 | 16.0 | 0.00 | 0.00 | 0.00 | 56 | 1004.2 |
| 20260508210219 | 55 | 305 | 13.0 | 17.0 | 0.00 | 0.00 | 0.00 | 55 | 1004.2 |
| 20260508205719 | 54 | 301 | 16.0 | 17.0 | 0.00 | 0.00 | 0.00 | 54 | 1004.1 |
| 20260508205226 | 54 | 300 | 6.0 | 15.0 | 0.00 | 0.00 | 0.00 | 54 | 1004.1 |
| 20260508204219 | 55 | 225 | 4.0 | 15.0 | 0.00 | 0.00 | 0.00 | 55 | 1004.0 |
| 20260508203720 | 54 | 257 | 8.0 | 17.0 | 0.00 | 0.00 | 0.00 | 58 | 1004.0 |
| 20260508203222 | 53 | 238 | 6.0 | 17.0 | 0.00 | 0.00 | 0.00 | 58 | 1004.2 |
| 20260508202718 | 53 | 210 | 9.0 | 21.0 | 0.00 | 0.00 | 0.00 | 58 | 1004.0 |
| 20260508202218 | 52 | 279 | 8.0 | 21.0 | 0.00 | 0.00 | 0.00 | 61 | 1003.9 |
| 20260508201217 | 52 | 274 | 11.0 | 15.0 | 0.00 | 0.00 | 0.00 | 60 | 1004.0 |
| 20260508200716 | 52 | 291 | 9.0 | 16.0 | 0.00 | 0.00 | 0.00 | 60 | 1004.0 |
| 20260508200217 | 52 | 275 | 11.0 | 19.0 | 0.00 | 0.00 | 0.00 | 59 | 1003.8 |
| 20260508195716 | 52 | 248 | 9.0 | 19.0 | 0.00 | 0.00 | 0.00 | 59 | 1003.6 |
| 20260508195216 | 53 | 293 | 8.0 | 16.0 | 0.00 | 0.00 | 0.00 | 58 | 1003.5 |
| 20260508194718 | 53 | 254 | 10.0 | 16.0 | 0.00 | 0.00 | 0.00 | 57 | 1003.4 |
| 20260508194216 | 54 | 264 | 10.0 | 20.0 | 0.00 | 0.00 | 0.00 | 56 | 1003.4 |
| 20260508193716 | 54 | 280 | 11.0 | 20.0 | 0.00 | 0.00 | 0.00 | 53 | 1003.4 |
| 20260508193216 | 54 | 246 | 12.0 | 21.0 | 0.00 | 0.00 | 0.00 | 53 | 1003.5 |
| 20260508192216 | 55 | 227 | 9.0 | 21.0 | 0.00 | 0.00 | 0.00 | 53 | 1003.4 |
| 20260508191717 | 55 | 202 | 17.0 | 21.0 | 0.00 | 0.00 | 0.00 | 52 | 1003.3 |
| 20260508190210 | 55 | 294 | 9.0 | 19.0 | 0.00 | 0.00 | 0.00 | 55 | 1003.3 |
| 20260508185712 | 55 | 251 | 7.0 | 19.0 | 0.00 | 0.00 | 0.00 | 54 | 1003.3 |
| 20260508185209 | 55 | 303 | 10.0 | 18.0 | 0.00 | 0.00 | 0.00 | 52 | 1003.3 |
| 20260508184705 | 55 | 289 | 9.0 | 17.0 | 0.00 | 0.00 | 0.00 | 56 | 1003.1 |
| 20260508184203 | 55 | 261 | 7.0 | 17.0 | 0.00 | 0.00 | 0.00 | 57 | 1003.2 |
| 20260508183700 | 55 | 293 | 14.0 | 20.0 | 0.00 | 0.00 | 0.00 | 55 | 1003.2 |
| 20260508183159 | 55 | 290 | 10.0 | 20.0 | 0.00 | 0.00 | 0.00 | 52 | 1003.0 |
| 20260508182659 | 55 | 298 | 4.0 | 15.0 | 0.00 | 0.00 | 0.00 | 53 | 1003.2 |
| 20260508182157 | 55 | 276 | 6.0 | 19.0 | 0.00 | 0.00 | 0.00 | 57 | 1003.0 |
| 20260508181657 | 55 | 264 | 10.0 | 19.0 | 0.00 | 0.00 | 0.00 | 55 | 1002.9 |
| 20260508181156 | 55 | 269 | 9.0 | 15.0 | 0.00 | 0.00 | 0.00 | 53 | 1003.1 |
| 20260508180652 | 55 | 305 | 10.0 | 14.0 | 0.00 | 0.00 | 0.00 | 52 | 1003.0 |
| 20260508180150 | 54 | 296 | 13.0 | 17.0 | 0.00 | 0.00 | 0.00 | 54 | 1003.1 |
| 20260508175647 | 55 | 255 | 11.0 | 18.0 | 0.00 | 0.00 | 0.00 | 54 | 1003.0 |
| 20260508174646 | 54 | 263 | 8.0 | 15.0 | 0.00 | 0.00 | 0.00 | 56 | 1002.9 |
| 20260508174145 | 54 | 254 | 9.0 | 15.0 | 0.00 | 0.00 | 0.00 | 54 | 1002.9 |
| 20260508173643 | 54 | 222 | 14.0 | 15.0 | 0.00 | 0.00 | 0.00 | 51 | 1002.8 |
| 20260508173143 | 54 | 296 | 10.0 | 17.0 | 0.00 | 0.00 | 0.00 | 52 | 1002.8 |
| 20260508172642 | 54 | 306 | 16.0 | 19.0 | 0.00 | 0.00 | 0.00 | 52 | 1002.8 |
| 20260508172141 | 54 | 268 | 13.0 | 19.0 | 0.00 | 0.00 | 0.00 | 52 | 1002.7 |
| 20260508170640 | 55 | 283 | 10.0 | 17.0 | 0.00 | 0.00 | 0.00 | 49 | 1002.8 |
| 20260508170141 | 55 | 295 | 5.0 | 13.0 | 0.00 | 0.00 | 0.00 | 53 | 1002.6 |
| 20260508165640 | 55 | 282 | 9.0 | 21.0 | 0.00 | 0.00 | 0.00 | 50 | 1002.8 |
| 20260508165138 | 54 | 225 | 8.0 | 21.0 | 0.00 | 0.00 | 0.00 | 51 | 1002.7 |
| 20260508164640 | 53 | 243 | 3.0 | 16.0 | 0.00 | 0.00 | 0.00 | 52 | 1002.7 |
| 20260508164139 | 53 | 265 | 8.0 | 16.0 | 0.00 | 0.00 | 0.00 | 51 | 1002.8 |
| 20260508163639 | 53 | 305 | 12.0 | 20.0 | 0.00 | 0.00 | 0.00 | 52 | 1003.0 |
| 20260508163138 | 53 | 299 | 10.0 | 20.0 | 0.00 | 0.00 | 0.00 | 53 | 1003.3 |
| 20260508162635 | 53 | 296 | 9.0 | 20.0 | 0.00 | 0.00 | 0.00 | 52 | 1003.0 |
| 20260508161635 | 54 | 303 | 11.0 | 18.0 | 0.00 | 0.00 | 0.00 | 51 | 1003.0 |
| 20260508160636 | 53 | 279 | 8.0 | 21.0 | 0.00 | 0.00 | 0.00 | 56 | 1003.1 |
| 20260508160135 | 53 | 284 | 9.0 | 20.0 | 0.00 | 0.00 | 0.00 | 52 | 1003.0 |
| 20260508155634 | 54 | 282 | 13.0 | 21.0 | 0.00 | 0.00 | 0.00 | 54 | 1002.9 |
| 20260508155131 | 55 | 294 | 11.0 | 23.0 | 0.00 | 0.00 | 0.00 | 52 | 1002.9 |
| 20260508154629 | 54 | 296 | 11.0 | 23.0 | 0.00 | 0.00 | 0.00 | 52 | 1002.9 |
| 20260508154128 | 54 | 309 | 20.0 | 23.0 | 0.00 | 0.01 | 0.00 | 48 | 1002.6 |
| 20260508153627 | 54 | 258 | 8.0 | 17.0 | 0.00 | 0.02 | 0.00 | 50 | 1003.1 |
| 20260508153126 | 54 | 292 | 7.0 | 18.0 | 0.00 | 0.02 | 0.00 | 53 | 1002.9 |
| 20260508151624 | 55 | 270 | 6.0 | 16.0 | 0.00 | 0.03 | 0.00 | 50 | 1003.0 |
| 20260508151117 | 55 | 294 | 6.0 | 18.0 | 0.00 | 0.03 | 0.00 | 50 | 1002.9 |
| 20260508150615 | 54 | 283 | 9.0 | 18.0 | 0.00 | 0.03 | 0.00 | 49 | 1003.0 |
| 20260508150114 | 54 | 302 | 9.0 | 13.0 | 0.00 | 0.05 | 0.00 | 50 | 1003.1 |
| 20260508145608 | 53 | 261 | 9.0 | 15.0 | 0.00 | 0.06 | 0.00 | 52 | 1003.1 |
| 20260508145105 | 53 | 254 | 5.0 | 15.0 | 0.00 | 0.08 | 0.00 | 53 | 1003.0 |
| 20260508144605 | 54 | 293 | 6.0 | 12.0 | 0.00 | 0.08 | 0.00 | 55 | 1003.0 |
| 20260508143105 | 53 | 235 | 10.0 | 18.0 | 0.00 | 0.12 | 0.00 | 55 | 1003.1 |
| 20260508142603 | 53 | 240 | 8.0 | 18.0 | 0.00 | 0.12 | 0.00 | 53 | 1003.1 |
| 20260508142058 | 53 | 301 | 13.0 | 14.0 | 0.00 | 0.13 | 0.00 | 55 | 1003.2 |
| 20260508141555 | 54 | 247 | 4.0 | 11.0 | 0.00 | 0.14 | 0.00 | 53 | 1003.0 |
| 20260508141054 | 54 | 296 | 10.0 | 14.0 | 0.00 | 0.14 | 0.00 | 55 | 1003.0 |
| 20260508135551 | 53 | 279 | 6.0 | 15.0 | 0.00 | 0.20 | 0.00 | 56 | 1003.2 |
| 20260508135048 | 53 | 219 | 7.0 | 12.0 | 0.00 | 0.21 | 0.00 | 56 | 1002.9 |
| 20260508134547 | 53 | 212 | 6.0 | 12.0 | 0.00 | 0.24 | 0.00 | 53 | 1003.1 |
| 20260508133546 | 53 | 306 | 10.0 | 14.0 | 0.00 | 0.28 | 0.00 | 55 | 1003.2 |
| 20260508133042 | 53 | 301 | 6.0 | 11.0 | 0.00 | 0.30 | 0.00 | 54 | 1003.0 |
| 20260508132542 | 52 | 254 | 4.0 | 12.0 | 0.00 | 0.31 | 0.00 | 59 | 1003.1 |
| 20260508132041 | 53 | 302 | 9.0 | 12.0 | 0.00 | 0.34 | 0.00 | 60 | 1003.1 |
| 20260508131541 | 52 | 250 | 5.0 | 11.0 | 0.00 | 0.34 | 0.00 | 54 | 1003.0 |
| 20260508131039 | 52 | 279 | 5.0 | 13.0 | 0.00 | 0.36 | 0.00 | 57 | 1003.0 |
| 20260508130538 | 51 | 253 | 7.0 | 14.0 | 0.00 | 0.37 | 0.00 | 57 | 1002.9 |
| 20260508130036 | 51 | 301 | 10.0 | 14.0 | 0.00 | 0.38 | 0.00 | 60 | 1003.0 |
| 20260508125534 | 51 | 263 | 4.0 | 9.0 | 0.00 | 0.41 | 0.00 | 60 | 1003.0 |
| 20260508125033 | 51 | 274 | 6.0 | 9.0 | 0.00 | 0.44 | 0.00 | 61 | 1002.9 |
| 20260508124032 | 51 | 276 | 4.0 | 9.0 | 0.00 | 0.47 | 0.00 | 61 | 1003.0 |
| 20260508123527 | 51 | 302 | 6.0 | 12.0 | 0.00 | 0.48 | 0.00 | 61 | 1002.8 |
| 20260508123027 | 51 | 260 | 5.0 | 12.0 | 0.00 | 0.48 | 0.00 | 61 | 1003.0 |
| 20260508122527 | 50 | 302 | 7.0 | 10.0 | 0.00 | 0.48 | 0.00 | 60 | 1003.1 |
| 20260508122028 | 50 | 299 | 6.0 | 10.0 | 0.00 | 0.48 | 0.00 | 62 | 1002.8 |
| 20260508121527 | 50 | 279 | 4.0 | 10.0 | 0.00 | 0.48 | 0.00 | 63 | 1003.0 |
| 20260508121027 | 50 | 308 | 4.0 | 9.0 | 0.00 | 0.48 | 0.00 | 63 | 1002.8 |
| 20260508115025 | 50 | 276 | 6.0 | 10.0 | 0.00 | 0.48 | 0.00 | 66 | 1003.0 |
| 20260508114525 | 50 | 285 | 4.0 | 10.0 | 0.00 | 0.48 | 0.00 | 65 | 1002.8 |
| 20260508114024 | 50 | 307 | 4.0 | 13.0 | 0.00 | 0.48 | 0.00 | 66 | 1003.0 |
| 20260508113019 | 49 | 309 | 3.0 | 12.0 | 0.00 | 0.48 | 0.00 | 66 | 1002.9 |
| 20260508112519 | 49 | 305 | 6.0 | 12.0 | 0.00 | 0.48 | 0.00 | 63 | 1002.7 |
| 20260508112017 | 49 | 303 | 5.0 | 13.0 | 0.00 | 0.49 | 0.00 | 64 | 1003.0 |
| 20260508111012 | 49 | 297 | 2.0 | 10.0 | 0.00 | 0.49 | 0.00 | 65 | 1003.0 |
| 20260508110507 | 49 | 297 | 3.0 | 8.0 | 0.00 | 0.49 | 0.00 | 67 | 1002.9 |
| 20260508110009 | 49 | 243 | 4.0 | 6.0 | 0.00 | 0.49 | 0.00 | 66 | 1003.0 |
| 20260508105507 | 49 | 26 | 1.0 | 6.0 | 0.00 | 0.49 | 0.00 | 68 | 1002.9 |
| 20260508105006 | 48 | 224 | 6.0 | 8.0 | 0.00 | 0.49 | 0.00 | 70 | 1002.9 |
| 20260508104504 | 48 | 233 | 3.0 | 8.0 | 0.00 | 0.49 | 0.00 | 71 | 1002.7 |
| 20260508104006 | 47 | 229 | 1.0 | 5.0 | 0.00 | 0.49 | 0.00 | 74 | 1002.6 |
| 20260508102959 | 46 | 272 | 4.0 | 7.0 | 0.00 | 0.49 | 0.00 | 80 | 1002.5 |
| 20260508102500 | 46 | 234 | 2.0 | 9.0 | 0.00 | 0.49 | 0.00 | 79 | 1002.6 |
| 20260508102001 | 46 | 262 | 3.0 | 9.0 | 0.00 | 0.49 | 0.00 | 79 | 1002.6 |
| 20260508101457 | 45 | 210 | 2.0 | 7.0 | 0.00 | 0.49 | 0.00 | 79 | 1002.4 |
| 20260508100959 | 45 | 214 | 3.0 | 6.0 | 0.00 | 0.49 | 0.00 | 82 | 1002.4 |
| 20260508100457 | 44 | 247 | 2.0 | 6.0 | 0.00 | 0.49 | 0.00 | 85 | 1002.4 |
| 20260508095458 | 42 | 192 | 0.0 | 3.0 | 0.00 | 0.49 | 0.00 | 92 | 1002.2 |
| 20260508094958 | 41 | 339 | 0.0 | 2.0 | 0.00 | 0.49 | 0.00 | 92 | 1002.3 |
| 20260508094457 | 41 | 91 | 0.0 | 3.0 | 0.00 | 0.49 | 0.00 | 93 | 1002.1 |
| 20260508093956 | 41 | 63 | 0.0 | 3.0 | 0.00 | 0.49 | 0.00 | 93 | 1002.0 |
| 20260508093457 | 41 | 304 | 1.0 | 4.0 | 0.00 | 0.49 | 0.00 | 94 | 1002.2 |
| 20260508092956 | 41 | 304 | 2.0 | 4.0 | 0.00 | 0.49 | 0.00 | 95 | 1002.0 |
| 20260508092458 | 41 | 269 | 2.0 | 4.0 | 0.00 | 0.49 | 0.00 | 96 | 1002.0 |
| 20260508091956 | 40 | 208 | 0.0 | 3.0 | 0.00 | 0.49 | 0.00 | 96 | 1002.1 |
| 20260508091454 | 40 | 161 | 0.0 | 3.0 | 0.00 | 0.49 | 0.00 | 96 | 1001.9 |
| 20260508090953 | 40 | 154 | 2.0 | 3.0 | 0.00 | 0.49 | 0.00 | 96 | 1001.9 |
| 20260508090453 | 40 | 133 | 2.0 | 6.0 | 0.00 | 0.49 | 0.00 | 96 | 1002.1 |
| 20260508085953 | 40 | 305 | 0.0 | 6.0 | 0.00 | 0.49 | 0.00 | 96 | 1002.1 |
| 20260508084952 | 40 | 179 | 1.0 | 3.0 | 0.00 | 0.49 | 0.00 | 95 | 1002.2 |
| 20260508084452 | 41 | 106 | 2.0 | 3.0 | 0.00 | 0.49 | 0.00 | 95 | 1002.2 |
| 20260508083947 | 40 | 222 | 1.0 | 2.0 | 0.00 | 0.49 | 0.00 | 95 | 1002.1 |
| 20260508083449 | 41 | 118 | 0.0 | 2.0 | 0.00 | 0.49 | 0.00 | 94 | 1002.0 |
| 20260508082947 | 41 | 85 | 0.0 | 2.0 | 0.00 | 0.49 | 0.00 | 93 | 1002.1 |
| 20260508082447 | 41 | 97 | 1.0 | 3.0 | 0.00 | 0.50 | 0.00 | 94 | 1002.2 |
| 20260508081946 | 41 | 230 | 2.0 | 3.0 | 0.00 | 0.50 | 0.00 | 94 | 1002.0 |
| 20260508081446 | 42 | 307 | 2.0 | 3.0 | 0.00 | 0.50 | 0.00 | 94 | 1002.2 |
| 20260508080947 | 42 | 352 | 0.0 | 3.0 | 0.00 | 0.50 | 0.00 | 94 | 1002.0 |
| 20260508080445 | 42 | 237 | 0.0 | 3.0 | 0.00 | 0.50 | 0.00 | 93 | 1002.3 |
| 20260508075944 | 42 | 110 | 0.0 | 1.0 | 0.00 | 0.50 | 0.00 | 93 | 1002.2 |
| 20260508075442 | 42 | 77 | 0.0 | 2.0 | 0.00 | 0.50 | 0.00 | 93 | 1002.3 |
| 20260508074940 | 42 | 223 | 0.0 | 2.0 | 0.00 | 0.50 | 0.00 | 93 | 1002.0 |
| 20260508074441 | 42 | 55 | 0.0 | 1.0 | 0.00 | 0.50 | 0.00 | 93 | 1002.1 |
| 20260508073939 | 42 | 125 | 0.0 | 1.0 | 0.00 | 0.50 | 0.00 | 93 | 1002.3 |
| 20260508072939 | 42 | 268 | 0.0 | 2.0 | 0.00 | 0.50 | 0.00 | 93 | 1002.1 |
| 20260508072438 | 42 | 184 | 0.0 | 2.0 | 0.00 | 0.50 | 0.00 | 93 | 1002.4 |
| 20260508070933 | 43 | 57 | 1.0 | 2.0 | 0.00 | 0.51 | 0.00 | 91 | 1002.1 |
| 20260508070432 | 43 | 117 | 0.0 | 2.0 | 0.00 | 0.51 | 0.00 | 91 | 1002.2 |
| 20260508065433 | 43 | 160 | 0.0 | 2.0 | 0.00 | 0.51 | 0.00 | 90 | 1002.3 |
| 20260508064932 | 44 | 111 | 2.0 | 3.0 | 0.00 | 0.51 | 0.00 | 89 | 1002.4 |
| 20260508063939 | 45 | 279 | 2.0 | 3.0 | 0.00 | 0.51 | 0.00 | 87 | 1002.5 |
| 20260508062927 | 45 | 117 | 0.0 | 2.0 | 0.00 | 0.51 | 0.00 | 86 | 1002.4 |
| 20260508062427 | 45 | 228 | 0.0 | 3.0 | 0.00 | 0.51 | 0.00 | 86 | 1002.2 |
| 20260508061426 | 46 | 269 | 2.0 | 5.0 | 0.00 | 0.51 | 0.00 | 85 | 1002.0 |
| 20260508060926 | 46 | 243 | 3.0 | 5.0 | 0.00 | 0.51 | 0.00 | 85 | 1002.4 |
| 20260508060426 | 46 | 242 | 2.0 | 5.0 | 0.00 | 0.51 | 0.00 | 86 | 1002.6 |
| 20260508055923 | 44 | 242 | 1.0 | 4.0 | 0.00 | 0.51 | 0.00 | 90 | 1002.6 |
| 20260508055424 | 44 | 194 | 1.0 | 3.0 | 0.00 | 0.51 | 0.00 | 91 | 1002.4 |
| 20260508054924 | 44 | 97 | 2.0 | 3.0 | 0.00 | 0.51 | 0.00 | 91 | 1002.4 |
| 20260508054425 | 44 | 208 | 0.0 | 3.0 | 0.00 | 0.51 | 0.00 | 91 | 1002.4 |
| 20260508053925 | 44 | 190 | 1.0 | 3.0 | 0.00 | 0.51 | 0.00 | 90 | 1002.3 |
| 20260508053422 | 44 | 108 | 1.0 | 3.0 | 0.00 | 0.51 | 0.00 | 90 | 1002.3 |
| 20260508052925 | 45 | 101 | 2.0 | 3.0 | 0.00 | 0.51 | 0.00 | 89 | 1002.2 |
| 20260508052423 | 45 | 182 | 0.0 | 4.0 | 0.00 | 0.51 | 0.00 | 88 | 1002.4 |
| 20260508051924 | 45 | 257 | 2.0 | 5.0 | 0.00 | 0.51 | 0.00 | 88 | 1002.4 |
| 20260508051423 | 45 | 300 | 3.0 | 5.0 | 0.00 | 0.51 | 0.00 | 88 | 1002.6 |
| 20260508050921 | 45 | 265 | 3.0 | 4.0 | 0.00 | 0.52 | 0.00 | 88 | 1002.7 |
| 20260508050421 | 45 | 257 | 2.0 | 7.0 | 0.00 | 0.52 | 0.00 | 88 | 1002.6 |
| 20260508045421 | 45 | 234 | 3.0 | 5.0 | 0.00 | 0.54 | 0.00 | 88 | 1002.6 |
| 20260508044919 | 45 | 263 | 3.0 | 6.0 | 0.00 | 0.54 | 0.00 | 89 | 1002.6 |
| 20260508044419 | 45 | 300 | 4.0 | 6.0 | 0.00 | 0.54 | 0.00 | 89 | 1002.5 |
| 20260508043418 | 45 | 272 | 2.0 | 6.0 | 0.00 | 0.54 | 0.00 | 90 | 1002.7 |
| 20260508042917 | 44 | 248 | 2.0 | 6.0 | 0.00 | 0.54 | 0.00 | 91 | 1002.7 |
| 20260508042417 | 44 | 309 | 2.0 | 4.0 | 0.00 | 0.54 | 0.00 | 94 | 1002.9 |
| 20260508041930 | 43 | 189 | 0.0 | 4.0 | 0.00 | 0.56 | 0.00 | 94 | 1002.8 |
| 20260508041414 | 43 | 170 | 2.0 | 2.0 | 0.00 | 0.56 | 0.00 | 94 | 1002.6 |
| 20260508040912 | 43 | 161 | 0.0 | 2.0 | 0.00 | 0.57 | 0.00 | 94 | 1002.7 |
| 20260508040411 | 43 | 148 | 0.0 | 2.0 | 0.00 | 0.59 | 0.00 | 94 | 1002.6 |
| 20260508035910 | 43 | 222 | 2.0 | 3.0 | 0.00 | 0.59 | 0.00 | 94 | 1002.6 |
| 20260508035410 | 43 | 284 | 0.0 | 3.0 | 0.00 | 0.59 | 0.00 | 94 | 1002.8 |
| 20260508034408 | 43 | 299 | 0.0 | 1.0 | 0.00 | 0.59 | 0.00 | 94 | 1002.6 |
| 20260508033905 | 43 | 12 | 0.0 | 2.0 | 0.00 | 0.59 | 0.00 | 94 | 1002.7 |
| 20260508033353 | 43 | 120 | 0.0 | 2.0 | 0.00 | 0.59 | 0.00 | 94 | 1002.8 |
| 20260508032847 | 43 | 123 | 1.0 | 2.0 | 0.00 | 0.59 | 0.00 | 94 | 1002.5 |
| 20260508032345 | 43 | 51 | 0.0 | 2.0 | 0.00 | 0.59 | 0.00 | 93 | 1002.3 |
| 20260508031845 | 43 | 121 | 1.0 | 3.0 | 0.00 | 0.59 | 0.00 | 93 | 1002.0 |
| 20260508031345 | 44 | 184 | 1.0 | 3.0 | 0.00 | 0.59 | 0.00 | 94 | 1002.3 |
| 20260508030344 | 43 | 302 | 2.0 | 4.0 | 0.00 | 0.59 | 0.00 | 93 | 1002.5 |
| 20260508025340 | 44 | 330 | 0.0 | 2.0 | 0.00 | 0.59 | 0.59 | 92 | 1002.4 |
| 20260508024839 | 44 | 205 | 0.0 | 2.0 | 0.00 | 0.59 | 0.59 | 91 | 1002.6 |
| 20260508024339 | 44 | 187 | 0.0 | 1.0 | 0.00 | 0.59 | 0.59 | 90 | 1002.5 |
| 20260508023839 | 45 | 117 | 1.0 | 2.0 | 0.00 | 0.59 | 0.59 | 89 | 1002.5 |
| 20260508023339 | 45 | 234 | 1.0 | 2.0 | 0.00 | 0.59 | 0.59 | 90 | 1002.6 |
| 20260508022838 | 45 | 311 | 0.0 | 2.0 | 0.00 | 0.59 | 0.59 | 91 | 1002.6 |
| 20260508022335 | 45 | 257 | 0.0 | 2.0 | 0.00 | 0.59 | 0.59 | 92 | 1002.8 |